FW2998 Weather Reports


time (UTC)temp
F
wind
direction
speed
knots
gust
knots
rain 1hr
in
rain 24hr
in
rain mn
in
humidity
%
barometer
mb
20260504231021 78 0 0.0 0.9 0.00 0.01 0.00 34 1015.0
20260504230521 78 0 0.0 1.7 0.00 0.01 0.00 34 1015.0
20260504230039 79 0 0.0 1.7 0.00 0.01 0.00 34 1015.0
20260504225521 79 0 0.0 1.7 0.00 0.01 0.00 34 1015.0
20260504225021 79 0 0.0 0.9 0.00 0.01 0.00 34 1014.9
20260504224539 80 0 0.0 2.6 0.00 0.01 0.00 32 1014.9
20260504224021 80 200 0.0 2.6 0.00 0.01 0.00 32 1014.9
20260504223521 81 0 0.0 2.6 0.00 0.01 0.00 32 1014.9
20260504223053 81 0 0.0 2.6 0.00 0.01 0.00 32 1015.0
20260504222520 81 0 0.0 2.6 0.00 0.01 0.00 31 1014.9
20260504222020 82 0 0.0 2.6 0.00 0.01 0.00 30 1015.0
20260504221537 82 0 0.0 2.6 0.00 0.01 0.00 30 1015.0
20260504221019 82 125 0.0 2.6 0.00 0.01 0.00 30 1014.9
20260504220520 83 113 0.0 3.5 0.00 0.01 0.00 30 1014.9
20260504220036 83 121 0.9 3.5 0.00 0.01 0.00 29 1014.9
20260504215520 84 0 0.0 2.6 0.00 0.01 0.00 29 1014.8
20260504215021 84 0 0.0 1.7 0.00 0.01 0.00 29 1014.7
20260504214538 85 0 0.0 1.7 0.00 0.01 0.00 28 1014.7
20260504214021 85 217 0.0 1.7 0.00 0.01 0.00 29 1014.7
20260504213525 85 0 0.0 1.7 0.00 0.01 0.00 28 1014.6
20260504213049 84 0 0.0 1.7 0.00 0.01 0.00 32 1014.7
20260504212520 84 0 0.0 3.5 0.00 0.01 0.00 30 1014.7
20260504212023 84 0 0.0 3.5 0.00 0.01 0.00 30 1014.7
20260504211536 84 0 0.0 1.7 0.00 0.01 0.00 29 1014.7
20260504211020 84 0 0.0 2.6 0.00 0.01 0.00 28 1014.7
20260504210519 84 0 0.0 2.6 0.00 0.01 0.00 28 1014.7
20260504210039 84 0 0.0 7.8 0.00 0.01 0.00 29 1014.7
20260504205519 83 0 0.9 7.8 0.00 0.01 0.00 28 1014.9
20260504205019 83 0 0.0 4.3 0.00 0.01 0.00 30 1014.7
20260504204543 83 104 0.0 5.2 0.00 0.01 0.00 30 1014.7
20260504204023 83 0 0.9 5.2 0.00 0.01 0.00 28 1014.8
20260504203522 83 107 0.9 5.2 0.00 0.01 0.00 28 1014.9
20260504203046 84 0 0.0 3.5 0.00 0.01 0.00 27 1014.9
20260504202519 84 0 0.0 3.5 0.00 0.01 0.00 27 1014.9
20260504202021 84 180 0.0 3.5 0.00 0.01 0.00 27 1014.9
20260504201538 84 0 0.0 3.5 0.00 0.01 0.00 27 1015.1
20260504201023 84 77 0.9 5.2 0.00 0.01 0.00 26 1015.0
20260504200520 84 175 0.0 5.2 0.00 0.01 0.00 28 1015.1
20260504200036 84 98 1.7 5.2 0.00 0.01 0.00 27 1015.2
20260504195518 85 126 0.9 2.6 0.00 0.02 0.00 27 1015.3
20260504195021 85 88 0.0 2.6 0.00 0.02 0.00 28 1015.3
20260504194536 85 276 0.0 2.6 0.00 0.02 0.00 27 1015.4
20260504194021 85 0 0.0 3.5 0.00 0.02 0.00 30 1015.5
20260504193520 85 0 0.0 3.5 0.00 0.02 0.00 29 1015.6
20260504193035 85 116 0.0 5.2 0.00 0.02 0.00 29 1015.7
20260504192519 85 52 0.9 5.2 0.00 0.02 0.00 27 1015.8
20260504192019 85 0 0.0 3.5 0.00 0.02 0.00 29 1015.9
20260504191539 85 269 0.0 5.2 0.00 0.02 0.00 28 1015.8
20260504191019 85 250 0.0 5.2 0.00 0.02 0.00 31 1015.9
20260504190519 84 0 0.0 3.5 0.00 0.02 0.00 31 1016.0
20260504190044 84 87 0.0 3.5 0.00 0.02 0.00 28 1016.1
20260504185521 84 0 0.0 3.5 0.00 0.02 0.00 29 1016.1
20260504185019 83 0 0.0 6.1 0.00 0.02 0.00 30 1016.4
20260504184537 83 0 0.0 6.1 0.00 0.02 0.00 29 1016.5
20260504184020 82 0 0.9 6.1 0.00 0.02 0.00 30 1016.6
20260504183519 82 0 0.0 3.5 0.00 0.02 0.00 31 1016.7
20260504183035 82 138 0.0 3.5 0.00 0.02 0.00 30 1016.7
20260504182519 82 110 0.9 7.0 0.00 0.02 0.00 31 1016.7
20260504182020 82 245 0.0 7.0 0.00 0.02 0.00 33 1016.7
20260504181542 82 0 0.9 5.2 0.00 0.02 0.00 31 1016.8
20260504181022 82 0 1.7 5.2 0.00 0.02 0.00 30 1016.8
20260504180522 81 0 0.0 6.1 0.00 0.02 0.00 34 1016.8
20260504180034 80 0 0.0 6.1 0.00 0.02 0.00 33 1016.8
20260504175522 81 101 0.0 2.6 0.00 0.02 0.00 33 1017.0
20260504175021 81 0 0.0 3.5 0.00 0.02 0.00 32 1017.0
20260504174538 80 276 0.0 3.5 0.00 0.02 0.00 33 1017.0
20260504174022 80 282 1.7 3.5 0.00 0.02 0.00 33 1017.0
20260504173519 80 0 0.9 3.5 0.00 0.02 0.00 32 1017.0
20260504173036 80 302 0.0 7.0 0.00 0.02 0.00 32 1017.1
20260504172519 80 298 0.9 7.0 0.00 0.02 0.00 31 1017.1
20260504172020 80 275 0.9 7.0 0.00 0.02 0.00 31 1017.1
20260504171537 80 281 1.7 7.0 0.00 0.02 0.00 32 1017.2
20260504171027 80 91 0.0 3.5 0.00 0.02 0.00 36 1017.2
20260504170522 80 0 0.0 5.2 0.00 0.02 0.00 33 1017.3
20260504151020 75 294 0.9 4.3 0.00 0.02 0.00 41 1018.4
20260504150520 75 336 0.0 5.2 0.00 0.02 0.00 44 1018.4
20260504141022 70 0 0.0 3.5 0.00 0.02 0.00 52 1018.5
20260504140518 70 0 0.9 3.5 0.00 0.02 0.00 53 1018.5
20260504130519 56 0 0.0 0.9 0.00 0.03 0.00 94 1018.7
20260504110521 47 0 0.0 0.0 0.00 0.03 0.00 90 1018.5
20260504100518 48 0 0.0 0.0 0.00 0.03 0.00 90 1018.2
20260504081538 49 0 0.0 1.7 0.00 0.03 0.00 89 1018.0
20260504081019 49 0 0.0 1.7 0.00 0.03 0.00 89 1018.1
20260504080519 49 0 0.0 0.0 0.00 0.03 0.00 88 1017.9
20260504050519 51 0 0.0 0.0 0.00 0.04 0.00 83 1018.7
20260504045519 51 0 0.0 0.0 0.00 0.04 0.00 82 1018.7
20260504045019 51 0 0.0 0.0 0.00 0.04 0.00 82 1018.7
20260504044543 51 0 0.0 0.0 0.00 0.04 0.00 81 1018.6
20260504044019 51 0 0.0 0.0 0.00 0.04 0.00 80 1018.5
20260504043523 51 0 0.0 0.0 0.00 0.04 0.00 79 1018.5
20260504043036 51 0 0.0 0.0 0.00 0.04 0.00 79 1018.3
20260504042523 52 0 0.0 0.0 0.00 0.04 0.00 79 1018.4
20260504042019 52 0 0.0 0.0 0.00 0.04 0.00 79 1018.4
20260504041536 52 0 0.0 0.0 0.00 0.04 0.00 79 1018.4
20260504041020 52 0 0.0 0.0 0.00 0.04 0.00 78 1018.5
20260504040520 52 0 0.0 0.0 0.00 0.04 0.00 78 1018.5
20260504040058 52 0 0.0 0.0 0.00 0.04 0.00 78 1018.5
20260504035520 52 0 0.0 0.0 0.00 0.04 0.04 77 1018.6
20260504035020 53 0 0.0 0.0 0.00 0.04 0.04 77 1018.5
20260504034553 53 0 0.0 0.0 0.00 0.04 0.04 77 1018.4
20260504034020 53 0 0.0 0.0 0.00 0.04 0.04 77 1018.4
20260504033521 53 0 0.0 0.0 0.00 0.04 0.04 76 1018.4
20260504033037 53 0 0.0 0.0 0.00 0.04 0.04 76 1018.5
20260504032521 53 0 0.0 0.0 0.00 0.04 0.04 76 1018.5
20260504032021 53 0 0.0 0.0 0.00 0.04 0.04 75 1018.5
20260504031536 54 0 0.0 0.0 0.00 0.04 0.04 75 1018.5
20260504031019 54 0 0.0 0.0 0.00 0.04 0.04 74 1018.4
20260504030520 54 0 0.0 0.0 0.00 0.04 0.04 74 1018.5
20260504030039 54 0 0.0 0.0 0.00 0.04 0.04 73 1018.5
20260504025522 54 0 0.0 0.0 0.00 0.04 0.04 73 1018.5
20260504025022 55 0 0.0 0.0 0.00 0.04 0.04 73 1018.5
20260504024535 55 0 0.0 0.0 0.00 0.04 0.04 72 1018.6
20260504024021 55 0 0.0 0.0 0.00 0.04 0.04 71 1018.6
20260504023522 55 0 0.0 0.0 0.00 0.04 0.04 71 1018.6
20260504023039 55 0 0.0 0.0 0.00 0.04 0.04 70 1018.5
20260504022521 56 0 0.0 0.0 0.00 0.04 0.04 69 1018.4
20260504022022 56 0 0.0 0.0 0.00 0.04 0.04 69 1018.4
20260504021538 56 0 0.0 0.0 0.00 0.04 0.04 68 1018.3
20260504021020 56 0 0.0 0.0 0.00 0.04 0.04 68 1018.3
20260504020524 57 0 0.0 0.0 0.00 0.04 0.04 67 1018.1
20260504020036 57 0 0.0 0.0 0.00 0.04 0.04 67 1018.1
20260504015522 57 0 0.0 0.0 0.00 0.04 0.04 66 1018.0
20260504015022 57 0 0.0 0.0 0.00 0.04 0.04 66 1018.0
20260504014536 58 0 0.0 0.0 0.00 0.04 0.04 65 1018.0
20260504014022 58 0 0.0 0.0 0.00 0.04 0.04 65 1017.9
20260504013522 58 0 0.0 0.0 0.01 0.04 0.04 64 1017.8
20260504013046 59 0 0.0 0.0 0.01 0.04 0.04 63 1017.8
20260504012523 59 0 0.0 0.0 0.01 0.04 0.04 63 1017.7
20260504012022 59 0 0.0 0.0 0.01 0.04 0.04 62 1017.7
20260504011537 60 0 0.0 0.0 0.01 0.04 0.04 61 1017.6
20260504011019 60 0 0.0 0.0 0.01 0.04 0.04 60 1017.5
20260504010520 61 0 0.0 0.0 0.01 0.04 0.04 59 1017.4
20260504010035 61 0 0.0 0.0 0.01 0.04 0.04 60 1017.4
20260504005519 61 0 0.0 0.0 0.01 0.04 0.04 58 1017.3
20260504005019 62 0 0.0 0.0 0.01 0.04 0.04 56 1017.2
20260504004532 62 0 0.0 0.0 0.01 0.04 0.04 57 1017.2
20260504004019 63 0 0.0 0.0 0.01 0.04 0.04 56 1017.1
20260504003519 63 0 0.0 0.0 0.00 0.03 0.03 55 1017.1
20260504003036 64 0 0.0 0.0 0.00 0.03 0.03 53 1017.1
20260504002519 64 0 0.0 0.0 0.00 0.03 0.03 53 1017.2
20260504002021 65 0 0.0 0.0 0.00 0.03 0.03 53 1017.1
20260504001536 66 0 0.0 0.0 0.00 0.03 0.03 50 1017.1
20260504001018 66 0 0.0 0.0 0.00 0.03 0.03 49 1017.1
20260504000518 67 0 0.0 0.0 0.00 0.03 0.03 49 1016.9
20260504000036 67 0 0.0 0.0 0.00 0.03 0.03 49 1016.8
20260503235518 68 0 0.0 0.0 0.00 0.03 0.03 47 1016.8
20260503235019 68 0 0.0 0.0 0.00 0.03 0.03 46 1016.9
20260503234535 69 0 0.0 0.9 0.00 0.03 0.03 46 1016.8
20260503234019 69 0 0.0 0.9 0.00 0.03 0.03 45 1016.8
20260503233517 69 0 0.0 0.9 0.00 0.03 0.03 44 1016.8
20260503233040 70 0 0.0 0.0 0.00 0.03 0.03 43 1016.8
20260503232520 70 0 0.0 1.7 0.00 0.03 0.03 43 1016.8
20260503232019 70 0 0.0 1.7 0.00 0.03 0.03 42 1016.8
20260503231536 71 0 0.0 1.7 0.00 0.03 0.03 42 1016.9